[[{"header":{"parameterUnit":"m.s-1","parameterCategory":1,"la1":30.2991,"la2":30.254,"lo1":-89.0895,"lo2":-89.0444,"dx":0.0017,"dy":0.0017,"nx":28,"ny":28,"refTime":"2022-12-07T03:00:00:Z","depth":0,"parameterNumber":2,"parameterNumberName":"U-component_of_WINDS"},"data":[0,0,0,0,0,0,0,0,0,0,0,0,0,0,0,0,0,0,0,0,0,0,0,0,0,0,0,0,0,0,0,0,0,0,0,0,0,0,0,0,0,0,0,0,0,0,0,0,0,0,0,0,0,0,0,0,0,0,-0.7567,-0.7567,0,-0.7555,-0.7555,-0.7555,-0.7529,-0.7529,-0.7528,-0.7528,-0.7516,-0.7516,-0.7516,0,0,0,0,0,0,0,0,0,0,0,0,0,-0.757,-0.757,-0.7567,-0.7567,-0.7567,-0.7555,-0.7555,-0.7555,-0.7529,-0.7529,-0.7528,-0.7528,-0.7516,-0.7516,-0.7516,0,0,0,0,0,0,0,0,0,0,0,0,0,-0.7564,-0.757,-0.7567,-0.7553,-0.7551,-0.7555,-0.7555,-0.7555,-0.753,-0.7529,-0.7528,-0.7527,-0.7516,-0.7516,-0.7516,-0.7533,0,0,-0.7517,-0.7517,0,0,0,0,0,0,0,0,-0.7565,-0.7564,-0.7555,-0.7554,-0.7552,-0.7543,-0.7551,-0.7548,-0.753,-0.7538,-0.7528,-0.7527,-0.7526,-0.7525,-0.7525,-0.7533,-0.7532,-0.7517,-0.7517,-0.7518,-0.7518,0,0,0,0,0,0,0,-0.7565,-0.7565,-0.7562,-0.7555,-0.7553,-0.7547,-0.7546,-0.7551,-0.7536,-0.7537,-0.7535,-0.7534,-0.7525,-0.7524,-0.7524,-0.7532,-0.7517,-0.7517,-0.7518,-0.7518,-0.7554,-0.7555,0,0,0,0,0,0,-0.7567,-0.7565,-0.7563,-0.7562,-0.7557,-0.7548,-0.7546,-0.7547,-0.7536,-0.7534,-0.7535,-0.7533,-0.7524,-0.7524,-0.7524,-0.7542,-0.7518,-0.7518,-0.7518,-0.7553,-0.7554,-0.7555,0,0,0,0,0,0,-0.7567,-0.7567,-0.7563,-0.7563,-0.7562,-0.7549,-0.755,-0.7547,-0.7546,-0.7534,-0.7532,-0.7537,-0.7524,-0.7523,-0.7531,-0.7542,-0.7518,-0.7518,-0.7552,-0.7554,-0.7555,-0.7581,0,0,0,0,0,0,-0.7568,-0.7568,-0.7574,-0.7563,-0.7562,-0.7571,-0.755,-0.7547,-0.7547,-0.7544,-0.7536,-0.7533,-0.7523,-0.7531,-0.7531,-0.7542,-0.7518,-0.7551,-0.7553,-0.7554,-0.7579,-0.7583,-0.7586,0,0,0,0,0,-0.7568,-0.7581,-0.7574,-0.7574,-0.7569,-0.7571,-0.7571,-0.7558,-0.7548,-0.7554,-0.7546,-0.7534,-0.7541,-0.7532,-0.7532,-0.7543,-0.7551,-0.7552,-0.7554,-0.7577,-0.7582,-0.7586,0,0,0,0,0,0,-0.7593,-0.758,-0.7571,-0.7582,-0.7578,-0.7567,-0.7574,-0.7564,-0.7563,-0.756,-0.7545,-0.7544,-0.7554,-0.7549,-0.7539,-0.7559,-0.7544,-0.7546,-0.7561,-0.7565,-0.7569,-0.7569,-0.7519,0,0,0,0,0,-0.76,-0.7603,-0.7591,-0.7602,-0.76,-0.7588,-0.7588,-0.7579,-0.7574,-0.7572,-0.7565,-0.7562,-0.7563,-0.7564,-0.7565,-0.7578,-0.7576,-0.7586,-0.7589,-0.7592,-0.7594,-0.7601,-0.7605,-0.7561,-0.7561,-0.7561,0,0,-0.7615,-0.7607,-0.761,-0.7607,-0.7602,-0.7606,-0.7586,-0.7591,-0.7593,-0.7573,-0.758,-0.7575,-0.757,-0.7581,-0.7585,-0.7577,-0.7606,-0.7595,-0.7597,-0.7597,-0.7603,-0.7607,-0.7611,-0.7562,-0.7562,-0.7562,0,0,-0.7642,-0.7637,-0.7645,-0.7641,-0.7635,-0.7627,-0.7629,-0.762,-0.7616,-0.7622,-0.7608,-0.7611,-0.7613,-0.761,-0.7609,-0.7636,-0.7624,-0.7637,-0.7655,-0.7662,-0.7665,-0.7668,-0.7677,-0.7681,-0.7638,-0.7639,-0.7639,0,-0.766,-0.7664,-0.7651,-0.7656,-0.7655,-0.7637,-0.7646,-0.7643,-0.7637,-0.7637,-0.7629,-0.7632,-0.7627,-0.7637,-0.7644,-0.7643,-0.7645,-0.7637,-0.7666,-0.7669,-0.7671,-0.768,-0.7683,-0.764,-0.764,-0.764,-0.764,0,-0.7687,-0.769,-0.7698,-0.7692,-0.7692,-0.7699,-0.7687,-0.7689,-0.768,-0.7673,-0.768,-0.7674,-0.7673,-0.7675,-0.7666,-0.7684,-0.7679,-0.7668,-0.7653,-0.7677,-0.7685,-0.7688,-0.7642,-0.7642,-0.7641,-0.7641,0,0,-0.7729,-0.7717,-0.772,-0.7717,-0.771,-0.7712,-0.7718,-0.7717,-0.7719,-0.7716,-0.7721,-0.7724,-0.7714,-0.7713,-0.7704,-0.771,-0.7732,-0.7699,-0.7698,-0.7704,-0.775,-0.7758,-0.7762,-0.7724,-0.7725,-0.7725,-0.775,0,-0.7754,-0.7764,-0.7752,-0.7764,-0.7767,-0.7751,-0.7756,-0.7752,-0.7746,-0.7748,-0.7741,-0.7743,-0.773,-0.7729,-0.7735,-0.7728,-0.774,-0.7726,-0.7729,-0.7729,-0.7729,-0.7766,-0.7774,-0.7797,-0.7753,-0.7754,-0.7754,0,-0.7784,-0.7783,-0.7795,-0.7787,-0.7787,-0.7793,-0.7791,-0.7793,-0.7788,-0.7783,-0.7782,-0.7771,-0.7777,-0.7763,-0.7771,-0.7761,-0.7762,-0.7759,-0.7759,-0.7758,-0.7742,-0.7765,-0.7805,-0.7808,-0.7759,-0.7759,-0.7758,0,-0.7813,-0.7814,-0.7822,-0.782,-0.7811,-0.7815,-0.7811,-0.7806,-0.7806,-0.7805,-0.7805,-0.7804,-0.7804,-0.7804,-0.7794,-0.7784,-0.7803,-0.7788,-0.7799,-0.7799,-0.7803,-0.7803,-0.7842,-0.7805,-0.7805,-0.7805,-0.7805,0,-0.7842,-0.785,-0.7834,-0.7839,-0.7848,-0.7835,-0.7844,-0.7839,-0.7834,-0.7838,-0.7824,-0.7828,-0.7814,-0.7817,-0.7809,-0.7816,-0.7817,-0.7813,-0.781,-0.7813,-0.7814,-0.7813,-0.7811,-0.7806,-0.7805,-0.7805,-0.7805,0,-0.7875,-0.7865,-0.7872,-0.7863,-0.7861,-0.7868,-0.786,-0.7864,-0.7857,-0.7861,-0.7862,-0.7851,-0.7853,-0.7843,-0.7844,-0.7838,-0.785,-0.7845,-0.7851,-0.7849,-0.7861,-0.786,-0.7901,-0.7905,-0.7866,-0.7866,-0.7866,0,-0.7894,-0.7899,-0.7891,-0.7892,-0.7889,-0.7891,-0.7891,-0.7879,-0.788,-0.7876,-0.788,-0.7881,-0.7881,-0.7885,-0.7878,-0.7878,-0.7873,-0.7887,-0.7873,-0.7876,-0.7872,-0.7872,-0.7872,-0.789,-0.789,-0.7891,-0.7891,0,-0.7928,-0.7922,-0.7923,-0.7922,-0.7922,-0.7921,-0.7918,-0.792,-0.7907,-0.7909,-0.7911,-0.7911,-0.7911,-0.7912,-0.7911,-0.7908,-0.7897,-0.7896,-0.7898,-0.7901,-0.7904,-0.7902,-0.7859,-0.7895,-0.7894,-0.7894,-0.7894,-0.7894,-0.7953,-0.7958,-0.7952,-0.7953,-0.795,-0.7949,-0.7952,-0.7946,-0.7947,-0.7946,-0.7939,-0.7942,-0.7938,-0.7935,-0.7933,-0.7936,-0.7929,-0.7933,-0.7933,-0.7934,-0.7936,-0.7905,-0.7936,-0.7935,-0.7935,-0.7935,-0.7935,0,-0.7986,-0.7982,-0.7983,-0.798,-0.7981,-0.7971,-0.7968,-0.797,-0.7973,-0.797,-0.797,-0.7972,-0.7973,-0.7966,-0.7967,-0.797,-0.7965,-0.797,-0.7969,-0.7969,-0.7942,-0.794,-0.7974,-0.7974,-0.7974,-0.7974,-0.7974,-0.7974,-0.8003,-0.8009,-0.8004,-0.8009,-0.8005,-0.8008,-0.8007,-0.8005,-0.8003,-0.8006,-0.8007,-0.8002,-0.7997,-0.7997,-0.7998,-0.7996,-0.7996,-0.8003,-0.7999,-0.7975,-0.7971,-0.7967,-0.7965,-0.8003,-0.8003,-0.8025,-0.8026,-0.8026]},{"header":{"parameterUnit":"m.s-1","parameterCategory":1,"la1":30.2991,"la2":30.254,"lo1":-89.0895,"lo2":-89.0444,"dx":0.0017,"dy":0.0017,"nx":28,"ny":28,"refTime":"2022-12-07T03:00:00:Z","depth":0,"parameterNumber":3,"parameterNumberName":"V-component_of_WINDS"},"data":[0,0,0,0,0,0,0,0,0,0,0,0,0,0,0,0,0,0,0,0,0,0,0,0,0,0,0,0,0,0,0,0,0,0,0,0,0,0,0,0,0,0,0,0,0,0,0,0,0,0,0,0,0,0,0,0,0,0,1.3176,1.3176,0,1.3197,1.3198,1.3198,1.3196,1.3195,1.3195,1.3195,1.3214,1.3215,1.3216,0,0,0,0,0,0,0,0,0,0,0,0,0,1.3133,1.3134,1.3176,1.3177,1.3177,1.3197,1.3198,1.3198,1.3196,1.3195,1.3195,1.3195,1.3214,1.3215,1.3216,0,0,0,0,0,0,0,0,0,0,0,0,0,1.3152,1.3134,1.3176,1.3178,1.3179,1.3197,1.3198,1.3198,1.3196,1.3195,1.3195,1.3194,1.3214,1.3215,1.3216,1.3233,0,0,1.322,1.3221,0,0,0,0,0,0,0,0,1.3151,1.3154,1.3178,1.3178,1.3179,1.3193,1.3189,1.321,1.3196,1.3189,1.3195,1.3194,1.3208,1.3209,1.3214,1.3234,1.3235,1.322,1.3221,1.3221,1.3222,0,0,0,0,0,0,0,1.315,1.3153,1.3184,1.3178,1.3179,1.3178,1.318,1.3193,1.3201,1.319,1.319,1.3192,1.3208,1.3213,1.3215,1.3235,1.322,1.3221,1.3222,1.3222,1.3272,1.3272,0,0,0,0,0,0,1.3148,1.3152,1.3184,1.3185,1.3164,1.3179,1.3181,1.3189,1.3201,1.3202,1.3193,1.3192,1.3211,1.3213,1.3215,1.3237,1.3221,1.3222,1.3223,1.3271,1.3272,1.3272,0,0,0,0,0,0,1.3147,1.3151,1.3183,1.3169,1.3173,1.318,1.3189,1.319,1.3195,1.3203,1.3204,1.3197,1.3211,1.3214,1.3229,1.3238,1.3223,1.3224,1.327,1.3271,1.3272,1.3281,0,0,0,0,0,0,1.3146,1.3151,1.3158,1.3169,1.3173,1.3197,1.3189,1.3191,1.3198,1.3197,1.3207,1.3208,1.3211,1.3228,1.3231,1.3239,1.3225,1.327,1.3271,1.3272,1.328,1.3282,1.3284,0,0,0,0,0,1.3145,1.3159,1.3158,1.3162,1.3182,1.3198,1.32,1.3203,1.3198,1.3205,1.321,1.3208,1.3236,1.3229,1.3233,1.3242,1.3269,1.327,1.3272,1.3279,1.3281,1.3284,0,0,0,0,0,0,1.3148,1.316,1.316,1.3178,1.3187,1.3197,1.3206,1.3206,1.3215,1.3214,1.3217,1.3219,1.3236,1.324,1.3232,1.326,1.3252,1.3254,1.3256,1.3259,1.3261,1.326,1.3226,0,0,0,0,0,1.3151,1.3163,1.3173,1.3188,1.3192,1.3198,1.3205,1.3207,1.3216,1.3219,1.3225,1.3234,1.3245,1.3252,1.3262,1.328,1.3283,1.3288,1.329,1.3292,1.3294,1.3304,1.3307,1.3277,1.3277,1.3276,0,0,1.3157,1.3165,1.3172,1.3189,1.3196,1.3208,1.3202,1.3214,1.3223,1.3221,1.3237,1.3241,1.3251,1.3268,1.3276,1.3272,1.3303,1.3293,1.3294,1.3296,1.3306,1.3309,1.3312,1.3277,1.3277,1.3277,0,0,1.3174,1.3181,1.3195,1.3203,1.3214,1.3218,1.3221,1.3232,1.3235,1.3251,1.325,1.326,1.3279,1.3286,1.3292,1.3313,1.3311,1.3316,1.3326,1.3337,1.3339,1.3341,1.335,1.3353,1.3318,1.3318,1.3318,0,1.318,1.3199,1.3202,1.3216,1.3223,1.3222,1.3237,1.3243,1.3257,1.3262,1.3258,1.3282,1.3288,1.3307,1.3312,1.3317,1.3321,1.3315,1.3339,1.3341,1.3343,1.3351,1.3354,1.3318,1.3318,1.3318,1.3318,0,1.3206,1.3219,1.3229,1.3244,1.3252,1.3266,1.3271,1.3279,1.328,1.3284,1.33,1.3308,1.332,1.3325,1.3325,1.3344,1.3342,1.3338,1.3331,1.3346,1.3354,1.3357,1.3319,1.3319,1.3319,1.3318,0,0,1.3227,1.3244,1.3247,1.3254,1.3267,1.3276,1.329,1.3303,1.331,1.3319,1.3331,1.3347,1.3344,1.3351,1.3352,1.3361,1.3378,1.3356,1.3356,1.3361,1.3401,1.3405,1.3408,1.3377,1.3378,1.3378,1.3401,0,1.3247,1.3272,1.3275,1.3298,1.331,1.3309,1.3321,1.333,1.3334,1.3345,1.335,1.3362,1.3356,1.336,1.3369,1.3374,1.3386,1.3372,1.3388,1.3389,1.3387,1.3412,1.3416,1.3437,1.3404,1.3404,1.3404,0,1.3273,1.3285,1.3308,1.332,1.3325,1.3336,1.3349,1.3359,1.3369,1.3371,1.3379,1.3379,1.3393,1.3385,1.3404,1.3395,1.3401,1.3405,1.3405,1.3408,1.3399,1.3417,1.3444,1.3448,1.3409,1.3409,1.3408,0,1.3288,1.3308,1.3326,1.3331,1.3345,1.3353,1.3359,1.3368,1.3376,1.3386,1.3392,1.3403,1.341,1.3419,1.3422,1.3415,1.3442,1.3433,1.3445,1.3445,1.3451,1.3451,1.3481,1.3453,1.3453,1.3453,1.3453,0,1.331,1.3325,1.3333,1.3343,1.336,1.3363,1.338,1.3385,1.3393,1.3405,1.3404,1.3415,1.3418,1.343,1.3432,1.3449,1.3451,1.3454,1.3455,1.3455,1.3455,1.346,1.3459,1.3454,1.3454,1.3454,1.3453,0,1.3329,1.3335,1.3354,1.3366,1.3369,1.3381,1.339,1.3401,1.3405,1.342,1.3423,1.343,1.3443,1.3447,1.3463,1.3464,1.3484,1.3483,1.3481,1.3482,1.3494,1.3493,1.3529,1.3535,1.3502,1.3502,1.3503,0,1.3344,1.3356,1.3369,1.3377,1.3384,1.3396,1.3405,1.3408,1.3417,1.3429,1.3438,1.3452,1.3463,1.3484,1.349,1.3502,1.3502,1.3514,1.3504,1.3504,1.3504,1.3503,1.3505,1.3516,1.3516,1.3517,1.3517,0,1.337,1.3372,1.3385,1.3399,1.3409,1.3419,1.3429,1.3436,1.3441,1.3451,1.3465,1.3473,1.349,1.3503,1.3516,1.3521,1.352,1.352,1.3523,1.3524,1.3524,1.3526,1.3488,1.3519,1.3519,1.3519,1.3519,1.3519,1.3388,1.3399,1.3411,1.3425,1.3433,1.3442,1.3453,1.3459,1.3471,1.3486,1.3487,1.3502,1.3512,1.3529,1.3535,1.3547,1.3543,1.3548,1.355,1.3551,1.3553,1.3521,1.3549,1.3549,1.3549,1.3549,1.3549,0,1.3416,1.3423,1.3436,1.3451,1.3462,1.346,1.3471,1.3481,1.3495,1.3504,1.3515,1.3532,1.3545,1.3552,1.3565,1.3573,1.3573,1.3577,1.3577,1.3579,1.3555,1.3551,1.3577,1.3577,1.3577,1.3577,1.3577,1.3577,1.3431,1.345,1.3453,1.3476,1.3483,1.3499,1.3506,1.3515,1.3523,1.3542,1.3553,1.3558,1.3566,1.358,1.3592,1.3594,1.3599,1.3603,1.3605,1.3583,1.358,1.3577,1.3574,1.3604,1.3604,1.3628,1.3628,1.3628]}]]